• In Portugal
  • List of Countries
  • For 7 days
  • Water Temperature
  • Satellite Maps
  • Weather Map
  • Weather Widgets
  • user-avatar
    Login

    Hourly Weather Shusha

    Today, 22 October, Monday

    Time Temperature Precipitation Wind Pressure Humidity
    00:00 +14°C° 0 mm 1 mps 660 mmHg 67%
    01:00 +13°C° 0 mm 1 mps 660 mmHg 70%
    02:00 +13°C° 0 mm 1 mps 660 mmHg 72%
    03:00 +12°C° 0 mm 1 mps 660 mmHg 74%
    04:00 +12°C° 0 mm 1 mps 660 mmHg 75%
    05:00 +12°C° 0 mm 1 mps 660 mmHg 75%
    06:00 +12°C° 0 mm 1 mps 660 mmHg 76%
    07:00 +13°C° 0 mm 1 mps 661 mmHg 71%
    08:00 +15°C° 0 mm 1 mps 661 mmHg 65%
    09:00 +16°C° 0 mm 1 mps 662 mmHg 59%
    10:00 +17°C° 0 mm 2 mps 662 mmHg 56%
    11:00 +19°C° 0 mm 2 mps 662 mmHg 52%
    12:00 +20°C° 0 mm 3 mps 662 mmHg 48%
    13:00 +19°C° 0 mm 3 mps 662 mmHg 48%
    14:00 +19°C° 0 mm 3 mps 662 mmHg 49%
    15:00 +19°C° 0 mm 3 mps 662 mmHg 49%
    16:00 +18°C° 0 mm 2 mps 661 mmHg 55%
    17:00 +16°C° 0 mm 2 mps 661 mmHg 61%
    18:00 +15°C° 0 mm 1 mps 661 mmHg 68%
    19:00 +14°C° 0 mm 1 mps 661 mmHg 69%
    20:00 +14°C° 0 mm 1 mps 661 mmHg 70%
    21:00 +14°C° 0 mm 1 mps 661 mmHg 71%
    22:00 +13°C° 0 mm 1 mps 661 mmHg 71%
    23:00 +13°C° 0 mm 1 mps 661 mmHg 72%

    Tomorrow, 23 October, Tuesday

    Time Temperature Precipitation Wind Pressure Humidity
    00:00 +13°C° 0 mm 1 mps 661 mmHg 72%
    01:00 +13°C° 0 mm 1 mps 661 mmHg 72%
    02:00 +12°C° 0 mm 1 mps 661 mmHg 72%
    03:00 +12°C° 0 mm 1 mps 661 mmHg 71%
    04:00 +12°C° 0 mm 1 mps 661 mmHg 71%
    05:00 +12°C° 0 mm 1 mps 661 mmHg 71%
    06:00 +11°C° 0 mm 1 mps 660 mmHg 71%
    07:00 +13°C° 0 mm 1 mps 661 mmHg 65%
    08:00 +15°C° 0 mm 1 mps 662 mmHg 60%
    09:00 +16°C° 0 mm 1 mps 662 mmHg 54%
    10:00 +17°C° 0 mm 2 mps 662 mmHg 50%
    11:00 +18°C° 0 mm 2 mps 662 mmHg 46%
    12:00 +19°C° 0 mm 3 mps 662 mmHg 42%
    13:00 +19°C° 0 mm 3 mps 662 mmHg 42%
    14:00 +19°C° 0 mm 3 mps 661 mmHg 42%
    15:00 +19°C° 0 mm 2 mps 661 mmHg 42%
    16:00 +18°C° 0 mm 2 mps 660 mmHg 49%
    17:00 +16°C° 0 mm 1 mps 660 mmHg 55%
    18:00 +15°C° 0 mm 1 mps 660 mmHg 62%
    19:00 +14°C° 0 mm 1 mps 660 mmHg 62%
    20:00 +14°C° 0 mm 1 mps 660 mmHg 63%
    21:00 +13°C° 0 mm 1 mps 660 mmHg 64%
    22:00 +13°C° 0 mm 1 mps 660 mmHg 63%
    23:00 +13°C° 0 mm 1 mps 659 mmHg 63%

    Day after tomorrow, 24 October, Wednesday

    Time Temperature Precipitation Wind Pressure Humidity
    00:00 +13°C° 0 mm 1 mps 659 mmHg 62%
    01:00 +13°C° 0 mm 1 mps 659 mmHg 62%
    02:00 +12°C° 0 mm 1 mps 659 mmHg 61%
    03:00 +12°C° 0 mm 1 mps 658 mmHg 61%
    04:00 +12°C° 0 mm 1 mps 658 mmHg 61%
    05:00 +12°C° 0 mm 1 mps 658 mmHg 60%
    06:00 +12°C° 0 mm 1 mps 658 mmHg 60%
    07:00 +13°C° 0 mm 2 mps 658 mmHg 55%
    08:00 +15°C° 0 mm 2 mps 659 mmHg 49%
    09:00 +17°C° 0 mm 2 mps 659 mmHg 44%
    10:00 +18°C° 0 mm 2 mps 659 mmHg 41%
    11:00 +19°C° 0 mm 3 mps 659 mmHg 38%
    12:00 +20°C° 0 mm 3 mps 658 mmHg 35%
    13:00 +19°C° 0 mm 3 mps 658 mmHg 36%
    14:00 +19°C° 0 mm 2 mps 657 mmHg 37%
    15:00 +19°C° 0 mm 2 mps 656 mmHg 38%
    16:00 +18°C° 0 mm 2 mps 656 mmHg 42%
    17:00 +18°C° 0 mm 1 mps 656 mmHg 46%
    18:00 +15°C° 0 mm 1 mps 655 mmHg 49%
    19:00 +15°C° 0 mm 1 mps 655 mmHg 51%
    20:00 +14°C° 0 mm 1 mps 655 mmHg 53%
    21:00 +14°C° 0 mm 1 mps 655 mmHg 55%
    22:00 +14°C° 0 mm 2 mps 655 mmHg 55%
    23:00 +14°C° 0 mm 2 mps 654 mmHg 55%

    25 October, Thursday

    Time Temperature Precipitation Wind Pressure Humidity
    00:00 +13°C° 0 mm 2 mps 654 mmHg 56%
    01:00 +13°C° 0 mm 2 mps 654 mmHg 55%
    02:00 +13°C° 0 mm 2 mps 654 mmHg 55%
    03:00 +13°C° 0 mm 2 mps 654 mmHg 55%
    04:00 +13°C° 0 mm 2 mps 654 mmHg 55%
    05:00 +12°C° 0 mm 2 mps 654 mmHg 55%
    06:00 +12°C° 0 mm 2 mps 653 mmHg 55%
    07:00 +14°C° 0 mm 3 mps 654 mmHg 49%
    08:00 +17°C° 0 mm 3 mps 654 mmHg 44%
    09:00 +19°C° 0 mm 3 mps 655 mmHg 38%
    10:00 +20°C° 0 mm 4 mps 654 mmHg 35%
    11:00 +22°C° 0 mm 4 mps 654 mmHg 31%
    12:00 +23°C° 0 mm 5 mps 654 mmHg 27%
    13:00 +23°C° 0 mm 5 mps 653 mmHg 28%
    14:00 +23°C° 0 mm 5 mps 653 mmHg 28%
    15:00 +23°C° 0 mm 4 mps 652 mmHg 29%
    16:00 +21°C° 0 mm 4 mps 652 mmHg 34%
    17:00 +19°C° 0 mm 3 mps 652 mmHg 40%
    18:00 +17°C° 0 mm 2 mps 652 mmHg 45%
    19:00 +17°C° 0 mm 3 mps 651 mmHg 46%
    20:00 +16°C° 0 mm 3 mps 651 mmHg 47%
    21:00 +16°C° 0 mm 3 mps 651 mmHg 49%
    22:00 +14°C° 0 mm 3 mps 651 mmHg 49%
    23:00 +15°C° 0 mm 2 mps 651 mmHg 49%

    26 October, Friday

    Time Temperature Precipitation Wind Pressure Humidity
    00:00 +15°C° 0 mm 2 mps 651 mmHg 49%
    01:00 +14°C° 0 mm 2 mps 651 mmHg 49%
    02:00 +14°C° 0 mm 2 mps 651 mmHg 49%
    03:00 +14°C° 0 mm 2 mps 651 mmHg 50%
    04:00 +13°C° 0 mm 2 mps 652 mmHg 51%
    05:00 +13°C° 0 mm 2 mps 652 mmHg 52%
    06:00 +13°C° 0 mm 2 mps 652 mmHg 54%
    07:00 +14°C° 0 mm 2 mps 653 mmHg 52%
    08:00 +14°C° 0 mm 3 mps 653 mmHg 50%
    09:00 +15°C° 0 mm 4 mps 654 mmHg 49%
    10:00 +15°C° 0 mm 4 mps 654 mmHg 50%
    11:00 +15°C° 0 mm 4 mps 654 mmHg 52%
    12:00 +16°C° 0 mm 5 mps 654 mmHg 54%
    13:00 +14°C° 0.2 mm 5 mps 654 mmHg 57%
    14:00 +13°C° 0.2 mm 5 mps 654 mmHg 61%
    15:00 +12°C° 0.2 mm 5 mps 654 mmHg 65%
    16:00 +11°C° 0.9 mm 4 mps 654 mmHg 67%
    17:00 +10°C° 0.9 mm 4 mps 655 mmHg 68%
    18:00 +9°C° 0.9 mm 3 mps 655 mmHg 70%
    19:00 +8°C° 1.4 mm 3 mps 656 mmHg 72%
    20:00 +8°C° 1.4 mm 3 mps 656 mmHg 73%
    21:00 +7°C° 1.4 mm 3 mps 657 mmHg 75%
    22:00 +7°C° 1.8 mm 3 mps 657 mmHg 77%
    23:00 +6°C° 1.8 mm 2 mps 658 mmHg 79%

    27 October, Saturday

    Time Temperature Precipitation Wind Pressure Humidity
    00:00 +6°C° 1.8 mm 2 mps 658 mmHg 81%
    01:00 +6°C° 1.7 mm 2 mps 659 mmHg 82%
    02:00 +5°C° 1.7 mm 2 mps 660 mmHg 83%
    03:00 +5°C° 1.7 mm 2 mps 660 mmHg 83%
    04:00 +5°C° 1.1 mm 2 mps 661 mmHg 83%
    05:00 +5°C° 1.1 mm 2 mps 662 mmHg 83%
    06:00 +5°C° 1.1 mm 2 mps 663 mmHg 83%
    07:00 +5°C° 0.2 mm 2 mps 664 mmHg 80%
    08:00 +6°C° 0.2 mm 2 mps 665 mmHg 77%
    09:00 +6°C° 0.2 mm 2 mps 666 mmHg 75%
    10:00 +7°C° 0.1 mm 2 mps 666 mmHg 70%
    11:00 +8°C° 0.1 mm 2 mps 666 mmHg 65%
    12:00 +9°C° 0.1 mm 2 mps 666 mmHg 61%
    13:00 +9°C° 0 mm 2 mps 666 mmHg 59%
    14:00 +9°C° 0 mm 2 mps 666 mmHg 58%
    15:00 +9°C° 0 mm 2 mps 666 mmHg 56%
    16:00 +8°C° 0 mm 2 mps 667 mmHg 59%
    17:00 +7°C° 0 mm 2 mps 667 mmHg 62%
    18:00 +7°C° 0 mm 1 mps 667 mmHg 66%
    19:00 +7°C° 0 mm 1 mps 667 mmHg 66%
    20:00 +7°C° 0 mm 1 mps 667 mmHg 66%
    21:00 +6°C° 0 mm 1 mps 668 mmHg 66%
    22:00 +6°C° 0 mm 1 mps 668 mmHg 65%
    23:00 +6°C° 0 mm 1 mps 668 mmHg 64%
    Show more